HORIZONS-3E

Last updated on Mon Feb 16 2026 00:02:50 GMT+0000 (Coordinated Universal Time)

1 43633U 18074B 26046.43135001 -.00000026 00000+0 00000+0 0 9991 2 43633 0.0423 272.7423 0000492 63.1681 133.7939 1.00271755 27122
UTC large
Height (km)
Speed (km/s)
/
Latitude / Longitude
Inclination (degrees)
Orbital Period (minutes)
Azimuth
Elevation
Range (km)
Doppler Factor

Next 0 passes for location: London (51.5072 / 0.1276)

Sorry there are no passes over London.